Location: Muenchen
(48.1800°N, 11.5800°E)
Time: 02:34:05
(UTC+02:00)

ISS - All Passes

Search period start: 29 July 2014 00:00
Search period end: 08 August 2014 00:00
Orbit: 411 x 420 km, 51.6° (Epoch: 28 July)

Date Brightness Start Highest point End Pass type
(mag) Time Alt. Az. Time Alt. Az. Time Alt. Az.
29 Jul - 00:19:44 10° SSW 00:22:33 25° SE 00:25:23 10° E visible
29 Jul - 01:55:41 10° WSW 01:59:02 75° NNW 02:02:24 10° ENE visible
29 Jul - 03:32:47 10° WNW 03:36:02 44° N 03:39:17 10° ENE visible
29 Jul - 05:09:38 10° WNW 05:13:01 77° NNE 05:16:23 10° ESE visible
29 Jul - 06:46:41 10° W 06:49:30 25° SW 06:52:18 10° SSE daylight
29 Jul - 23:31:43 10° S 23:33:55 17° SE 23:36:07 10° E night (unlit)
30 Jul - 01:06:52 10° WSW 01:10:13 80° SSE 01:13:35 10° ENE visible
30 Jul - 02:43:52 10° W 02:47:07 45° N 02:50:23 10° ENE visible
30 Jul - 04:20:49 10° WNW 04:24:10 60° NNE 04:27:30 10° E visible
30 Jul - 05:57:40 10° WNW 06:00:49 37° SW 06:03:57 10° SE daylight
30 Jul - 22:44:49 10° SE 22:45:20 10° SE 22:45:52 10° ESE night (unlit)
31 Jul - 00:18:10 10° SW 00:21:26 54° SSE 00:24:44 10° ENE visible
31 Jul - 01:54:55 10° W 01:58:13 51° N 02:01:31 10° ENE visible
31 Jul - 03:31:59 10° WNW 03:35:16 50° N 03:38:34 10° E visible
31 Jul - 05:08:45 10° WNW 05:12:04 57° SSW 05:15:23 10° SE visible
31 Jul - 06:47:10 10° WSW 06:48:12 11° SW 06:49:14 10° SSW daylight
31 Jul - 23:29:37 10° SSW 23:32:42 35° SE 23:35:48 10° ENE night (unlit)
01 Aug - 01:06:00 10° W 01:09:19 61° NNW 01:12:40 10° ENE visible
01 Aug - 02:43:06 10° WNW 02:46:22 45° N 02:49:37 10° E visible
01 Aug - 04:19:54 10° WNW 04:23:16 83° SSW 04:26:39 10° ESE visible
01 Aug - 05:57:16 10° W 05:59:36 18° SW 06:01:56 10° S daylight
01 Aug - 22:41:17 10° SSW 22:44:00 23° SE 22:46:44 10° E night (unlit)
02 Aug - 00:17:06 10° WSW 00:20:27 80° NNW 00:23:49 10° ENE visible
02 Aug - 01:54:11 10° WNW 01:57:26 44° N 02:00:41 10° ENE visible
02 Aug - 03:31:04 10° WNW 03:34:26 73° NNE 03:37:48 10° ESE visible
02 Aug - 05:08:03 10° W 05:10:57 27° SW 05:13:50 10° SSE visible
02 Aug - 21:53:22 10° S 21:55:22 15° SE 21:57:23 10° E visible
02 Aug - 23:28:17 10° WSW 23:31:37 74° SSE 23:34:59 10° ENE visible
03 Aug - 01:05:15 10° W 01:08:30 46° N 01:11:46 10° ENE visible
03 Aug - 02:42:13 10° WNW 02:45:33 57° NNE 02:48:53 10° E visible
03 Aug - 04:19:02 10° WNW 04:22:14 41° SSW 04:25:25 10° SE visible
03 Aug - 22:39:35 10° SW 22:42:50 50° SSE 22:46:05 10° ENE visible
04 Aug - 00:16:17 10° W 00:19:34 52° NNW 00:22:53 10° ENE visible
04 Aug - 01:53:21 10° WNW 01:56:38 48° N 01:59:55 10° E visible
04 Aug - 03:30:07 10° WNW 03:33:27 62° SSW 03:36:47 10° SE visible
04 Aug - 05:08:12 10° WSW 05:09:37 12° SW 05:11:03 10° SSW visible
04 Aug - 21:51:04 10° SSW 21:54:05 32° SE 21:57:07 10° E visible
04 Aug - 23:27:21 10° W 23:30:40 64° NNW 23:34:01 10° ENE visible
05 Aug - 01:04:27 10° WNW 01:07:42 44° N 01:10:57 10° ENE visible
05 Aug - 02:41:16 10° WNW 02:44:38 89° SSW 02:48:00 10° ESE night (unlit)
05 Aug - 04:18:31 10° W 04:21:00 19° SW 04:23:28 10° S visible
05 Aug - 21:02:47 10° SSW 21:05:23 21° SE 21:08:00 10° E daylight
05 Aug - 22:38:27 10° WSW 22:41:47 84° NNW 22:45:09 10° ENE visible
06 Aug - 00:15:31 10° WNW 00:18:45 44° N 00:21:59 10° ENE visible
06 Aug - 01:52:24 10° WNW 01:55:46 69° NNE 01:59:07 10° ESE visible
06 Aug - 03:29:20 10° W 03:32:18 29° SW 03:35:16 10° SSE night (unlit)
06 Aug - 20:14:58 10° SSE 20:16:44 14° SE 20:18:30 10° ESE daylight
06 Aug - 21:49:38 10° WSW 21:52:57 69° SSE 21:56:17 10° ENE visible
06 Aug - 23:26:33 10° W 23:29:48 47° N 23:33:04 10° ENE visible
07 Aug - 01:03:32 10° WNW 01:06:51 55° NNE 01:10:10 10° E visible
07 Aug - 02:40:20 10° WNW 02:43:34 44° SSW 02:46:46 10° SE night (unlit)
07 Aug - 21:00:57 10° SW 21:04:08 46° SSE 21:07:22 10° ENE daylight
07 Aug - 22:37:34 10° W 22:40:51 54° NNW 22:44:10 10° ENE visible
